If you wish to contribute or participate in the discussions about articles you are invited to join SKYbrary as a registered user

 Actions

Val de Cães International Airport

From SKYbrary Wiki

SBBE
Airport
ICAO: SBBE – IATA: BEL
Summary
Name Val de Cães International Airport
Region South America and Caribbean
Territory Brazil BR.gif
Location Val de Cães, Parana
Serving Belem
Elevation 17.069 m
56 ft17.069 m
Coordinates 1° 23' 4.99" S, 48° 28' 44.00" W
Runways
Designator Length Width Surface ROPS
6/24 2800 m9,186.352 ft
45 m147.638 ft
ASP yes/yes
7/20 33 m108.268 ft
33 m108.268 ft
CON /yes


METAR
Observation SBBE 201500Z 28005KT 9999 BKN030 FEW033TCU 29/24 Q1010
Station Belem Aeroporto
Date/Time 20 November 2019 15:00:00
Wind direction 280°
Wind speed 05 kts
Lowest cloud amount broken clouds
Temperature 29°C
Dew point 24°C
Humidity 74%
QNH 1010 hPa
Weather condition n/a

Belém/Val de Cans–Júlio Cezar Ribeiro International Airport is the main airport serving Belém, Brazil. Val de Cans (sometimes spelled Val de Cães) is the name of the neighborhood where the airport is located. Since 13 April 2010 the airport is named also after Júlio Cezar Ribeiro de Souza.

Climatology

Tropical rainforest climate (Köppen climate classification Af)

Maps

Terrain

Loading map...

Airport Layout

Loading map...


Accidents & Serious Incidents at or in vicinity of SBBE

None on SKYbrary